[[{"header":{"parameterUnit":"m.s-1","parameterCategory":1,"la1":30.2991,"la2":30.254,"lo1":-89.0895,"lo2":-89.0444,"dy":0.0017,"dx":0.0017,"nx":28,"ny":28,"refTime":"2023-07-31T03:00:00:Z","depth":0,"parameterNumber":2,"parameterNumberName":"U-component_of_WINDS"},"data":[0,0,0,0,0,0,0,0,0,0,0,0,0,0,0,0,0,0,0,0,0,0,0,0,0,0,0,0,0,0,0,0,0,0,0,0,0,0,0,0,0,0,0,0,0,0,0,0,0,0,0,0,0,0,0,0,0,0,0.9313,0.9315,0,0.9448,0.945,0.9451,0.9507,0.9506,0.9506,0.9506,0.9644,0.9648,0.9652,0,0,0,0,0,0,0,0,0,0,0,0,0,0.9103,0.9106,0.9313,0.9315,0.9316,0.9448,0.945,0.9452,0.9507,0.9506,0.9506,0.9506,0.9643,0.9647,0.9652,0,0,0,0,0,0,0,0,0,0,0,0,0,0.9211,0.9107,0.9313,0.936,0.9365,0.9448,0.945,0.9452,0.9507,0.9506,0.9506,0.9505,0.9641,0.9647,0.9653,0.9698,0,0,0.9671,0.9673,0,0,0,0,0,0,0,0,0.9205,0.9219,0.9351,0.9357,0.9363,0.946,0.9426,0.9535,0.9507,0.9453,0.9506,0.9505,0.9583,0.9594,0.962,0.9705,0.9711,0.9671,0.9675,0.9678,0.9679,0,0,0,0,0,0,0,0.9198,0.9214,0.9367,0.9353,0.936,0.9374,0.9389,0.9447,0.9519,0.9458,0.9462,0.9477,0.9586,0.9614,0.9624,0.9713,0.9671,0.9676,0.968,0.9682,0.9842,0.9842,0,0,0,0,0,0,0.9182,0.9207,0.9362,0.9371,0.9281,0.9378,0.9395,0.9429,0.9518,0.9532,0.9477,0.9479,0.9604,0.9617,0.9629,0.9688,0.9677,0.9683,0.9686,0.9841,0.9842,0.9842,0,0,0,0,0,0,0.9178,0.9196,0.9357,0.929,0.9312,0.9382,0.9421,0.9432,0.946,0.9533,0.9546,0.9493,0.9604,0.962,0.9681,0.9694,0.9686,0.9691,0.984,0.9841,0.9842,0.9806,0,0,0,0,0,0,0.9171,0.9194,0.9212,0.929,0.9315,0.9406,0.9421,0.9435,0.947,0.9474,0.9551,0.9564,0.9605,0.9671,0.9686,0.9702,0.9696,0.9839,0.9841,0.9842,0.9807,0.9806,0.9806,0,0,0,0,0,0.9164,0.9196,0.9212,0.9231,0.9339,0.9407,0.9421,0.9468,0.9471,0.949,0.9537,0.9561,0.969,0.9677,0.9695,0.9712,0.9839,0.984,0.9842,0.9807,0.9806,0.9806,0,0,0,0,0,0,0.9117,0.9207,0.9226,0.9285,0.9338,0.9416,0.9441,0.9466,0.9519,0.952,0.9577,0.9594,0.9649,0.9687,0.9671,0.976,0.9766,0.9771,0.9734,0.9734,0.9733,0.9723,0.9701,0,0,0,0,0,0.9114,0.9162,0.9238,0.9282,0.9308,0.937,0.9401,0.9433,0.949,0.9512,0.9564,0.9618,0.9671,0.9704,0.9757,0.9813,0.983,0.9833,0.9832,0.9831,0.9835,0.9867,0.9869,0.9847,0.9847,0.9847,0,0,0.9108,0.9163,0.9189,0.9275,0.9319,0.9367,0.9388,0.9438,0.9474,0.952,0.958,0.962,0.9684,0.9742,0.977,0.9775,0.9845,0.9833,0.9832,0.9836,0.9869,0.9871,0.9873,0.9848,0.9848,0.9848,0,0,0.912,0.9167,0.9209,0.9254,0.9321,0.9362,0.9372,0.9447,0.9475,0.9536,0.9571,0.9615,0.9704,0.9749,0.9783,0.9813,0.9837,0.9828,0.9825,0.9856,0.9857,0.9859,0.987,0.9873,0.9832,0.9832,0.9832,0,0.9104,0.9178,0.9228,0.9276,0.9312,0.9356,0.9399,0.944,0.9521,0.9545,0.9549,0.9663,0.9709,0.9778,0.9785,0.9811,0.9825,0.982,0.9853,0.9855,0.9858,0.9869,0.9872,0.983,0.983,0.983,0.9831,0,0.9154,0.9205,0.9231,0.9308,0.9347,0.9392,0.9449,0.9483,0.9512,0.9552,0.9613,0.9671,0.9736,0.9755,0.9783,0.9828,0.9829,0.9842,0.9849,0.9858,0.9869,0.9873,0.9828,0.9828,0.9829,0.9829,0,0,0.9141,0.9246,0.9254,0.929,0.9368,0.9408,0.9455,0.9518,0.9546,0.9601,0.9642,0.9716,0.973,0.9768,0.9802,0.9829,0.9849,0.984,0.9842,0.9839,0.9902,0.9891,0.9895,0.9866,0.9867,0.9867,0.9896,0,0.9164,0.9251,0.9298,0.9365,0.9412,0.9454,0.9496,0.9547,0.9586,0.9632,0.9676,0.9728,0.9741,0.9765,0.9793,0.984,0.9862,0.9839,0.9904,0.9906,0.9887,0.9901,0.9889,0.9914,0.9901,0.9902,0.9902,0,0.9203,0.9257,0.9328,0.9401,0.9422,0.9458,0.952,0.9564,0.9624,0.965,0.9693,0.9727,0.9778,0.9781,0.9853,0.9836,0.9866,0.9893,0.9895,0.9903,0.9904,0.9908,0.9923,0.9926,0.991,0.9909,0.9908,0,0.9186,0.9277,0.9331,0.9361,0.9446,0.9471,0.9507,0.9567,0.9602,0.9656,0.9679,0.9739,0.9771,0.9816,0.9865,0.9863,0.9932,0.9939,0.9956,0.9954,0.9968,0.9967,0.9987,0.9987,0.9987,0.9987,0.9987,0,0.9207,0.9249,0.9325,0.9358,0.9407,0.946,0.9506,0.9547,0.9599,0.9641,0.9681,0.972,0.9782,0.9828,0.9867,0.992,0.9935,0.9957,0.9967,0.9954,0.9951,0.9974,0.9973,0.9988,0.9988,0.9988,0.9987,0,0.9197,0.9249,0.9311,0.9387,0.9407,0.944,0.9505,0.9539,0.958,0.9633,0.9648,0.9713,0.9769,0.9822,0.9898,0.9924,0.9978,0.999,0.9957,0.9963,0.9976,0.9974,1.0012,1.002,1.0014,1.0014,1.0014,0,0.9206,0.924,0.9319,0.9351,0.9387,0.9436,0.9472,0.9526,0.9562,0.9632,0.9658,0.9717,0.9768,0.9856,0.991,0.9968,0.9982,0.9992,0.9991,0.9977,0.9983,0.998,0.9984,0.9991,0.999,0.999,0.999,0,0.9218,0.9243,0.9293,0.9353,0.9395,0.9444,0.9495,0.9518,0.9581,0.962,0.9678,0.9717,0.9794,0.9853,0.9917,0.9955,0.9983,0.999,0.9997,0.9983,0.9963,0.9974,0.9955,0.9989,0.9989,0.9989,0.9989,0.9989,0.9219,0.925,0.9311,0.9366,0.941,0.9456,0.9492,0.9538,0.9587,0.9654,0.9683,0.9742,0.9801,0.989,0.9928,0.9975,0.9981,0.9991,0.9994,0.9995,0.9993,0.9955,0.9987,0.9987,0.9987,0.9987,0.9987,0,0.9232,0.9274,0.9324,0.9393,0.9437,0.9459,0.9517,0.9551,0.9603,0.9656,0.9704,0.9771,0.9829,0.9887,0.9947,0.9973,0.9988,0.9988,0.9986,0.9994,0.9984,0.9972,0.9975,0.9975,0.9975,0.9975,0.9975,0.9975,0.9244,0.9299,0.9331,0.9407,0.9449,0.9507,0.9538,0.9581,0.9623,0.9696,0.9744,0.9781,0.9837,0.9901,0.9955,0.997,0.9991,0.9987,1.0006,0.9995,0.9995,0.9996,0.9985,0.9991,0.9991,1.0013,1.0013,1.0013]},{"header":{"parameterUnit":"m.s-1","parameterCategory":1,"la1":30.2991,"la2":30.254,"lo1":-89.0895,"lo2":-89.0444,"dy":0.0017,"dx":0.0017,"nx":28,"ny":28,"refTime":"2023-07-31T03:00:00:Z","depth":0,"parameterNumber":3,"parameterNumberName":"V-component_of_WINDS"},"data":[0,0,0,0,0,0,0,0,0,0,0,0,0,0,0,0,0,0,0,0,0,0,0,0,0,0,0,0,0,0,0,0,0,0,0,0,0,0,0,0,0,0,0,0,0,0,0,0,0,0,0,0,0,0,0,0,0,0,1.7266,1.7266,0,1.7184,1.7183,1.7182,1.7101,1.71,1.7099,1.7098,1.701,1.7009,1.7008,0,0,0,0,0,0,0,0,0,0,0,0,0,1.7351,1.735,1.7266,1.7265,1.7264,1.7184,1.7183,1.7182,1.7101,1.71,1.7098,1.7097,1.7011,1.7009,1.7008,0,0,0,0,0,0,0,0,0,0,0,0,0,1.7296,1.7349,1.7267,1.7214,1.7209,1.7184,1.7183,1.7182,1.7101,1.71,1.7098,1.7097,1.7011,1.7009,1.7007,1.7027,0,0,1.7001,1.7,0,0,0,0,0,0,0,0,1.7299,1.7293,1.7223,1.7218,1.7212,1.7151,1.7181,1.713,1.7102,1.7142,1.7098,1.7096,1.7058,1.7052,1.704,1.7023,1.7019,1.7001,1.7,1.6999,1.6999,0,0,0,0,0,0,0,1.7303,1.7296,1.7234,1.7222,1.7215,1.7194,1.7185,1.7171,1.711,1.7138,1.7132,1.7124,1.7055,1.7042,1.7038,1.7018,1.7001,1.6999,1.6998,1.6997,1.7011,1.7013,0,0,0,0,0,0,1.7315,1.73,1.7236,1.7231,1.7253,1.7194,1.7183,1.7172,1.711,1.7099,1.7125,1.712,1.7047,1.704,1.7034,1.7053,1.6999,1.6997,1.6996,1.701,1.7012,1.7013,0,0,0,0,0,0,1.7317,1.731,1.724,1.7264,1.7253,1.7194,1.7182,1.7171,1.7159,1.71,1.7089,1.7124,1.7045,1.7037,1.7029,1.7049,1.6996,1.6994,1.7008,1.701,1.7012,1.709,0,0,0,0,0,0,1.732,1.7312,1.7319,1.7265,1.7252,1.7237,1.7184,1.7171,1.7156,1.7149,1.7096,1.7085,1.7043,1.7033,1.7027,1.7045,1.6993,1.7006,1.7009,1.7012,1.7086,1.7095,1.7103,0,0,0,0,0,1.7323,1.7344,1.732,1.7313,1.7261,1.7239,1.7231,1.7183,1.7158,1.7164,1.7127,1.7087,1.7047,1.7033,1.7026,1.7043,1.7004,1.7008,1.7011,1.7082,1.7093,1.7103,0,0,0,0,0,0,1.7401,1.7336,1.7309,1.7312,1.7282,1.7225,1.7232,1.7197,1.7172,1.7167,1.7107,1.7096,1.7095,1.7068,1.7053,1.7058,1.702,1.7023,1.7076,1.7086,1.7095,1.7101,1.6991,0,0,0,0,0,1.7419,1.7407,1.735,1.7359,1.7345,1.7292,1.728,1.7246,1.7211,1.7198,1.7159,1.7127,1.7107,1.7095,1.7073,1.7081,1.7068,1.7089,1.7098,1.7105,1.7108,1.711,1.7119,1.7025,1.7025,1.7025,0,0,1.7455,1.7418,1.7414,1.7373,1.7346,1.7335,1.7281,1.7271,1.7262,1.7196,1.7187,1.7158,1.7117,1.7117,1.7115,1.7095,1.7131,1.711,1.7116,1.7115,1.7115,1.7124,1.7132,1.7027,1.7027,1.7027,0,0,1.7515,1.7486,1.749,1.7463,1.7423,1.7387,1.7388,1.7337,1.7315,1.7305,1.7255,1.7242,1.721,1.7183,1.7165,1.7215,1.7178,1.7209,1.7254,1.7257,1.7264,1.7271,1.7289,1.7296,1.7212,1.7213,1.7213,0,1.7565,1.7547,1.7496,1.749,1.7473,1.7414,1.7417,1.7393,1.7347,1.7337,1.7314,1.7272,1.724,1.7233,1.7246,1.7233,1.7232,1.7215,1.7268,1.7273,1.7278,1.7295,1.7302,1.7217,1.7216,1.7216,1.7215,0,1.761,1.7598,1.7606,1.7564,1.7548,1.7547,1.7495,1.7485,1.7452,1.7418,1.7408,1.7369,1.7338,1.7334,1.7301,1.7322,1.731,1.7279,1.724,1.7293,1.7307,1.7313,1.7223,1.7221,1.722,1.7219,0,0,1.7717,1.7647,1.7651,1.7631,1.7582,1.7571,1.7567,1.7538,1.753,1.75,1.7494,1.7468,1.7438,1.7418,1.7382,1.7384,1.7426,1.7352,1.735,1.7367,1.7447,1.7471,1.748,1.7401,1.7402,1.7403,1.745,0,1.7769,1.7758,1.7712,1.7715,1.7703,1.7646,1.7642,1.7611,1.7579,1.7563,1.7527,1.751,1.7472,1.746,1.7459,1.7421,1.7441,1.7417,1.7394,1.7394,1.7407,1.7487,1.7513,1.756,1.7455,1.7456,1.7457,0,1.7828,1.7803,1.7805,1.7756,1.7749,1.7746,1.7716,1.7702,1.7665,1.7642,1.762,1.7579,1.757,1.7533,1.752,1.7504,1.7492,1.7472,1.7472,1.7469,1.7429,1.7485,1.7573,1.7581,1.7465,1.7465,1.7464,0,1.7906,1.7873,1.7869,1.7854,1.7797,1.7796,1.7772,1.7734,1.7719,1.7692,1.7682,1.7654,1.7639,1.7618,1.757,1.7548,1.7562,1.7521,1.7542,1.7543,1.7547,1.7548,1.7635,1.754,1.7539,1.7539,1.7539,0,1.7969,1.7972,1.7904,1.7902,1.7904,1.785,1.7853,1.7823,1.779,1.778,1.7729,1.7721,1.7659,1.7643,1.7606,1.76,1.7594,1.7574,1.7564,1.7579,1.7582,1.757,1.7566,1.7541,1.7541,1.754,1.754,0,1.8057,1.8011,1.8004,1.7951,1.7937,1.7941,1.7894,1.789,1.7855,1.7844,1.7838,1.7783,1.7762,1.7713,1.7678,1.7653,1.7657,1.7639,1.767,1.7664,1.7688,1.7686,1.7771,1.7779,1.7679,1.768,1.768,0,1.81,1.8102,1.8049,1.8039,1.8018,1.8003,1.7988,1.7935,1.7921,1.788,1.788,1.7855,1.7833,1.7802,1.7759,1.7732,1.7713,1.7744,1.7708,1.7723,1.7713,1.7714,1.7714,1.7752,1.7754,1.7755,1.7756,0,1.8182,1.816,1.8141,1.8114,1.8098,1.8074,1.8048,1.8043,1.7983,1.797,1.7949,1.7932,1.7897,1.7873,1.784,1.7813,1.7775,1.7767,1.7771,1.7786,1.7804,1.7795,1.7692,1.7766,1.7765,1.7764,1.7763,1.7763,1.8249,1.8248,1.821,1.8191,1.8166,1.8142,1.8135,1.81,1.8081,1.805,1.8019,1.8001,1.7963,1.7915,1.7892,1.7876,1.7856,1.7861,1.7862,1.7864,1.7871,1.7807,1.7869,1.7869,1.7869,1.7868,1.7868,0,1.8329,1.8302,1.8285,1.8249,1.8234,1.82,1.8168,1.8157,1.8143,1.8111,1.809,1.8066,1.8042,1.7997,1.7969,1.7965,1.7947,1.796,1.796,1.7954,1.789,1.789,1.7975,1.7975,1.7975,1.7975,1.7975,1.7975,1.8368,1.8364,1.8337,1.832,1.8292,1.8275,1.826,1.8238,1.8213,1.8188,1.8169,1.8139,1.8102,1.8071,1.8048,1.8035,1.8027,1.8046,1.8028,1.7969,1.7959,1.7949,1.7949,1.8045,1.8045,1.8093,1.8093,1.8094]}]]